OE5RLP-14 Weather Reports


time (UTC)temp
C
wind
direction
speed
KPH
gust
KPH
rain 1hr
cm
rain 24hr
cm
rain mn
cm
humidity
%
barometer
mb
20260504034426 16 289 4.8 11.3 0.00 0.00 0.00 51 1015.7
20260504033425 17 260 8.0 12.9 0.00 0.00 0.00 50 1015.8
20260504032425 17 267 4.8 9.7 0.00 0.00 0.00 50 1015.8
20260504031425 17 286 6.4 11.3 0.00 0.00 0.00 49 1015.7
20260504030444 17 215 4.8 9.7 0.00 0.00 0.00 49 1015.5
20260504025505 17 262 6.4 11.3 0.00 0.00 0.00 49 1015.7
20260504024437 17 288 8.0 14.5 0.00 0.00 0.00 48 1015.7
20260504023435 17 261 6.4 9.7 0.00 0.00 0.00 47 1015.4
20260504022431 16 267 4.8 9.7 0.00 0.00 0.00 47 1015.3
20260504021430 17 299 4.8 6.4 0.00 0.00 0.00 46 1015.1
20260504020427 16 291 4.8 6.4 0.00 0.00 0.00 47 1015.1
20260504015426 16 0.0 0.0 0.00 0.00 0.00 51 1015.1
20260504014444 16 207 0.0 1.6 0.00 0.00 0.00 49 1015.0
20260504013427 16 0.0 0.0 0.00 0.00 0.00 50 1014.9
20260504012446 15 0.0 0.0 0.00 0.00 0.00 53 1014.7
20260504011442 15 0.0 0.0 0.00 0.00 0.00 53 1014.9
20260504010441 16 184 4.8 4.8 0.00 0.00 0.00 51 1014.6
20260504005436 16 199 3.2 3.2 0.00 0.00 0.00 51 1014.6
20260504004435 16 212 4.8 4.8 0.00 0.00 0.00 52 1014.4
20260504003452 16 175 3.2 4.8 0.00 0.00 0.00 53 1014.6
20260504002448 16 175 3.2 4.8 0.00 0.00 0.00 53 1014.5
20260504001447 16 157 3.2 4.8 0.00 0.00 0.00 53 1014.5
20260504000425 17 253 1.6 3.2 0.00 0.00 0.00 52 1014.2
20260503235426 17 222 3.2 4.8 0.00 0.00 0.00 51 1014.2
20260503234444 17 284 6.4 14.5 0.00 0.00 0.00 53 1014.4
20260503233443 17 288 9.7 11.3 0.00 0.00 0.00 54 1014.3
20260503232440 17 305 9.7 11.3 0.00 0.00 0.00 51 1014.2
20260503231438 18 296 8.0 12.9 0.00 0.00 0.00 43 1014.0
20260503230435 18 303 4.8 6.4 0.00 0.00 0.00 41 1013.8
20260503225433 18 0.0 0.0 0.00 0.00 0.00 43 1013.8
20260503224431 17 0.0 0.0 0.00 0.00 0.00 46 1013.4
20260503223432 17 188 1.6 3.2 0.00 0.00 0.00 44 1013.2
20260503222428 18 115 3.2 6.4 0.00 0.00 0.00 42 1013.2
20260503221425 18 0.0 0.0 0.00 0.00 0.00 41 1013.2
20260503220417 18 0.0 0.0 0.00 0.00 0.00 40 1013.2
20260503215445 19 172 1.6 4.8 0.00 0.00 0.00 40 1013.0
20260503214442 19 138 3.2 6.4 0.00 0.00 0.00 39 1013.1
20260503213501 19 0.0 0.0 0.00 0.00 0.00 39 1013.1
20260503212436 20 0.0 0.0 0.00 0.00 0.00 38 1013.2
20260503211439 20 210 3.2 4.8 0.00 0.00 0.00 36 1013.0
20260503210431 21 185 8.0 11.3 0.00 0.00 0.00 36 1012.9
20260503205450 21 191 8.0 12.9 0.00 0.00 0.00 35 1012.9
20260503204426 21 136 8.0 14.5 0.00 0.00 0.00 35 1013.0
20260503203429 21 152 9.7 14.5 0.00 0.00 0.00 36 1013.0
20260503202427 21 226 8.0 20.9 0.00 0.00 0.00 36 1012.9
20260503201427 21 240 9.7 16.1 0.00 0.00 0.00 37 1012.9
20260503200444 20 156 8.0 11.3 0.00 0.00 0.00 39 1013.1
20260503195441 20 125 6.4 11.3 0.00 0.00 0.00 39 1013.2
20260503194540 20 173 8.0 11.3 0.00 0.00 0.00 37 1013.1
20260503193440 21 221 6.4 11.3 0.00 0.00 0.00 37 1013.0
20260503192433 21 158 9.7 17.7 0.00 0.00 0.00 36 1013.1
20260503191432 21 171 6.4 12.9 0.00 0.00 0.00 36 1012.8
20260503190427 21 169 8.0 20.9 0.00 0.00 0.00 37 1012.9
20260503185448 20 152 12.9 20.9 0.00 0.00 0.00 40 1012.9
20260503184427 20 156 6.4 9.7 0.00 0.00 0.00 44 1012.8
20260503183427 20 140 6.4 12.9 0.00 0.00 0.00 47 1012.7
20260503182443 20 136 6.4 6.4 0.00 0.00 0.00 46 1012.6
20260503181525 21 138 1.6 4.8 0.00 0.00 0.00 45 1012.6
20260503180502 21 84 6.4 9.7 0.00 0.00 0.00 47 1012.5
20260503175437 21 103 6.4 9.7 0.00 0.00 0.00 46 1012.5
20260503174434 21 97 6.4 9.7 0.00 0.00 0.00 45 1012.6
20260503173433 22 92 4.8 6.4 0.00 0.00 0.00 45 1012.6
20260503172450 22 90 6.4 12.9 0.00 0.00 0.00 43 1012.5
20260503171427 22 83 9.7 14.5 0.00 0.00 0.00 43 1012.6
20260503170447 23 91 9.7 14.5 0.00 0.00 0.00 41 1012.6
20260503150426 25 31 29.0 43.5 0.00 0.00 0.00 37 1013.2
20260503130445 25 92 12.9 17.7 0.00 0.00 0.00 36 1015.0
20260503110442 22 91 9.7 14.5 0.00 0.00 0.00 50 1016.9
20260503090440 17 323 3.2 4.8 0.00 0.00 0.00 57 1018.3
20260503081445 16 99 4.8 4.8 0.00 0.00 0.00 60 1018.4
20260503080425 16 307 3.2 3.2 0.00 0.00 0.00 62 1018.6
20260503072442 15 313 3.2 6.4 0.00 0.00 0.00 65 1018.5
20260503071438 15 352 4.8 6.4 0.00 0.00 0.00 62 1018.6
20260503070437 14 101 3.2 4.8 0.00 0.00 0.00 62 1018.5
20260503054443 13 0.0 0.0 0.00 0.00 0.00 61 1018.2
20260503053440 15 0.0 0.0 0.00 0.00 0.00 59 1018.3
20260503052437 15 149 1.6 1.6 0.00 0.00 0.00 60 1018.0
20260503051434 14 150 1.6 3.2 0.00 0.00 0.00 60 1018.0
20260503050431 13 150 1.6 3.2 0.00 0.00 0.00 63 1017.9
20260503045429 13 130 3.2 4.8 0.00 0.00 0.00 62 1018.1
20260503044427 12 133 4.8 6.4 0.00 0.00 0.00 65 1018.1
20260503043423 11 132 3.2 4.8 0.00 0.00 0.00 68 1018.0
20260503042424 10 139 4.8 4.8 0.00 0.00 0.00 71 1017.9
20260503041425 10 158 3.2 4.8 0.00 0.00 0.00 73 1017.9
20260503040445 8 168 6.4 6.4 0.00 0.00 0.00 77 1018.0
20260503035442 7 145 6.4 6.4 0.00 0.00 0.00 79 1017.9